Time,TemperatureF,DewpointF,PressureIn,WindDirection,WindDirectionDegrees,WindSpeedMPH,WindSpeedGustMPH,Humidity,HourlyPrecipIn,Conditions,Clouds,dailyrainin,SolarRadiationWatts/m^2,SoftwareType,DateUTC
2013-05-10 00:01:00,76.0,42.0,-100.00,SW,227,4.0,17.0,30,0.00,,,0.00,0.000000,,2013-05-10 07:01:00,
2013-05-10 00:11:00,76.0,42.0,-100.00,SW,227,4.0,17.0,30,0.00,,,0.00,0.000000,,2013-05-10 07:11:00,
2013-05-10 00:22:00,76.0,42.0,-100.00,SW,227,4.0,17.0,30,0.00,,,0.00,0.000000,,2013-05-10 07:22:00,
2013-05-10 00:42:00,74.0,42.0,-100.00,SW,231,8.0,14.0,32,0.00,,,0.00,0.000000,,2013-05-10 07:42:00,
2013-05-10 00:52:00,74.0,42.0,-100.00,SW,231,8.0,14.0,32,0.00,,,0.00,0.000000,,2013-05-10 07:52:00,
2013-05-10 01:02:00,74.0,42.0,-100.00,SW,231,8.0,14.0,32,0.00,,,0.00,0.000000,,2013-05-10 08:02:00,
2013-05-10 01:12:00,74.0,42.0,-100.00,SW,231,8.0,14.0,32,0.00,,,0.00,0.000000,,2013-05-10 08:12:00,
2013-05-10 01:21:00,74.0,42.0,-100.00,SW,231,8.0,14.0,32,0.00,,,0.00,0.000000,,2013-05-10 08:21:00,
2013-05-10 01:52:00,68.0,46.0,-100.00,South,175,6.0,11.0,46,0.00,,,0.00,0.000000,,2013-05-10 08:52:00,
2013-05-10 02:01:00,68.0,46.0,-100.00,South,175,6.0,11.0,46,0.00,,,0.00,0.000000,,2013-05-10 09:01:00,
2013-05-10 02:11:00,68.0,46.0,-100.00,South,175,6.0,11.0,46,0.00,,,0.00,0.000000,,2013-05-10 09:11:00,
2013-05-10 02:21:00,68.0,46.0,-100.00,South,175,6.0,11.0,46,0.00,,,0.00,0.000000,,2013-05-10 09:21:00,
2013-05-10 02:52:00,67.0,47.0,-100.00,South,179,0.0,9.0,49,0.00,,,0.00,0.000000,,2013-05-10 09:52:00,
2013-05-10 03:02:00,67.0,47.0,-100.00,South,179,0.0,9.0,49,0.00,,,0.00,0.000000,,2013-05-10 10:02:00,
2013-05-10 03:12:00,67.0,47.0,-100.00,South,179,0.0,9.0,49,0.00,,,0.00,0.000000,,2013-05-10 10:12:00,
2013-05-10 03:23:00,67.0,47.0,-100.00,South,179,0.0,9.0,49,0.00,,,0.00,0.000000,,2013-05-10 10:23:00,
2013-05-10 03:52:00,67.0,51.0,-100.00,SE,126,0.0,3.0,56,0.00,,,-99.99,0.000000,,2013-05-10 10:52:00,
2013-05-10 04:02:00,67.0,51.0,-100.00,SE,126,0.0,3.0,56,0.00,,,-99.99,0.000000,,2013-05-10 11:02:00,
2013-05-10 04:12:00,67.0,51.0,-100.00,SE,126,0.0,3.0,56,0.00,,,-99.99,0.000000,,2013-05-10 11:12:00,
2013-05-10 04:21:00,67.0,51.0,-100.00,SE,126,0.0,3.0,56,0.00,,,-99.99,0.000000,,2013-05-10 11:21:00,
2013-05-10 06:52:00,67.0,51.0,-100.00,NW,318,0.0,2.0,57,-99.99,,,0.00,28.000000,,2013-05-10 13:52:00,
2013-05-10 07:02:00,67.0,51.0,-100.00,NW,318,0.0,2.0,57,-99.99,,,0.00,28.000000,,2013-05-10 14:02:00,
2013-05-10 07:11:00,67.0,51.0,-100.00,NW,318,0.0,2.0,57,-99.99,,,0.00,28.000000,,2013-05-10 14:11:00,
2013-05-10 07:21:00,67.0,51.0,-100.00,NW,318,0.0,2.0,57,-99.99,,,0.00,28.000000,,2013-05-10 14:21:00,
2013-05-10 07:52:00,72.0,54.0,-100.00,ENE,78,0.0,3.0,53,0.00,,,0.00,166.000000,,2013-05-10 14:52:00,
2013-05-10 08:01:00,72.0,54.0,-100.00,ENE,78,0.0,3.0,53,0.00,,,0.00,166.000000,,2013-05-10 15:01:00,
2013-05-10 08:20:00,-999.0,-99.9,-100.00,ENE,78,0.0,3.0,53,0.00,,,0.00,166.000000,,2013-05-10 15:20:00,
2013-05-10 08:53:00,75.0,46.0,-100.00,WNW,282,3.0,5.0,36,0.00,,,0.00,463.000000,,2013-05-10 15:53:00,
2013-05-10 09:02:00,75.0,46.0,-100.00,WNW,282,3.0,5.0,36,0.00,,,0.00,463.000000,,2013-05-10 16:02:00,
2013-05-10 09:12:00,75.0,46.0,-100.00,WNW,282,3.0,5.0,36,0.00,,,0.00,463.000000,,2013-05-10 16:12:00,
2013-05-10 09:23:00,75.0,46.0,-100.00,WNW,282,3.0,5.0,36,0.00,,,0.00,463.000000,,2013-05-10 16:23:00,
2013-05-10 09:52:00,86.0,44.0,-100.00,SSW,193,0.0,4.0,23,0.00,,,0.00,735.000000,,2013-05-10 16:52:00,
2013-05-10 10:02:00,86.0,44.0,-100.00,SSW,193,0.0,4.0,23,0.00,,,0.00,735.000000,,2013-05-10 17:02:00,
2013-05-10 10:12:00,86.0,44.0,-100.00,SSW,193,0.0,4.0,23,0.00,,,0.00,735.000000,,2013-05-10 17:12:00,
2013-05-10 10:21:00,86.0,44.0,-100.00,SSW,193,0.0,4.0,23,0.00,,,0.00,735.000000,,2013-05-10 17:21:00,
2013-05-10 11:11:00,-999.0,-99.9,-100.00,North,3,8.0,16.0,20,0.00,,,0.00,956.000000,,2013-05-10 18:11:00,
2013-05-10 11:21:00,87.0,41.0,-100.00,North,3,8.0,16.0,20,0.00,,,0.00,956.000000,,2013-05-10 18:21:00,
2013-05-10 13:52:00,91.0,33.0,-100.00,North,357,9.0,18.0,13,0.00,,,0.00,1240.000000,,2013-05-10 20:52:00,
2013-05-10 15:12:00,93.0,33.0,-100.00,NNW,339,10.0,17.0,12,0.00,,,0.00,1189.000000,,2013-05-10 22:12:00,
2013-05-10 15:22:00,93.0,33.0,-100.00,NNW,339,10.0,17.0,12,0.00,,,0.00,1189.000000,,2013-05-10 22:22:00,
2013-05-10 15:52:00,92.0,32.0,-100.00,NNW,339,11.0,20.0,12,0.00,,,0.00,1041.000000,,2013-05-10 22:52:00,
2013-05-10 16:02:00,92.0,32.0,-100.00,NNW,339,11.0,20.0,12,0.00,,,0.00,1041.000000,,2013-05-10 23:02:00,
2013-05-10 16:12:00,92.0,32.0,-100.00,NNW,339,11.0,20.0,12,0.00,,,0.00,1041.000000,,2013-05-10 23:12:00,
2013-05-10 16:22:00,92.0,32.0,-100.00,NNW,339,11.0,20.0,12,0.00,,,0.00,1041.000000,,2013-05-10 23:22:00,
2013-05-10 16:52:00,94.0,31.0,-100.00,North,10,12.0,21.0,11,0.00,,,0.00,837.000000,,2013-05-10 23:52:00,
2013-05-10 17:01:00,94.0,31.0,-100.00,North,10,12.0,21.0,11,0.00,,,0.00,837.000000,,2013-05-11 00:01:00,
2013-05-10 17:11:00,94.0,31.0,-100.00,North,10,12.0,21.0,11,0.00,,,0.00,837.000000,,2013-05-11 00:11:00,
2013-05-10 17:21:00,94.0,31.0,-100.00,North,10,12.0,21.0,11,0.00,,,0.00,837.000000,,2013-05-11 00:21:00,
2013-05-10 17:52:00,93.0,33.0,-100.00,NNW,336,5.0,16.0,12,0.00,,,0.00,363.000000,,2013-05-11 00:52:00,
2013-05-10 18:01:00,93.0,33.0,-100.00,NNW,336,5.0,16.0,12,0.00,,,0.00,363.000000,,2013-05-11 01:01:00,
2013-05-10 18:11:00,93.0,33.0,-100.00,NNW,336,5.0,16.0,12,0.00,,,0.00,363.000000,,2013-05-11 01:11:00,
2013-05-10 18:21:00,93.0,33.0,-100.00,NNW,336,5.0,16.0,12,0.00,,,0.00,363.000000,,2013-05-11 01:21:00,
2013-05-10 19:52:00,90.0,41.0,-100.00,SSW,208,9.0,14.0,18,0.00,,,0.00,48.000000,,2013-05-11 02:52:00,
2013-05-10 20:01:00,90.0,41.0,-100.00,SSW,208,9.0,14.0,18,0.00,,,0.00,48.000000,,2013-05-11 03:01:00,
2013-05-10 20:11:00,90.0,41.0,-100.00,SSW,208,9.0,14.0,18,0.00,,,0.00,48.000000,,2013-05-11 03:11:00,
2013-05-10 20:21:00,90.0,41.0,-100.00,SSW,208,9.0,14.0,18,0.00,,,0.00,48.000000,,2013-05-11 03:21:00,
2013-05-10 20:53:00,85.0,42.0,-100.00,SSW,207,4.0,11.0,22,0.00,,,0.00,0.000000,,2013-05-11 03:53:00,
2013-05-10 21:02:00,85.0,42.0,-100.00,SSW,207,4.0,11.0,22,0.00,,,0.00,0.000000,,2013-05-11 04:02:00,
2013-05-10 21:12:00,85.0,42.0,-100.00,SSW,207,4.0,11.0,22,0.00,,,0.00,0.000000,,2013-05-11 04:12:00,
2013-05-10 21:23:00,85.0,42.0,-100.00,SSW,207,4.0,11.0,22,0.00,,,0.00,0.000000,,2013-05-11 04:23:00,
2013-05-10 21:52:00,84.0,42.0,-100.00,SSW,199,0.0,9.0,23,0.00,,,-99.99,0.000000,,2013-05-11 04:52:00,
2013-05-10 22:02:00,84.0,42.0,-100.00,SSW,199,0.0,9.0,23,0.00,,,-99.99,0.000000,,2013-05-11 05:02:00,
2013-05-10 22:12:00,84.0,42.0,-100.00,SSW,199,0.0,9.0,23,0.00,,,-99.99,0.000000,,2013-05-11 05:12:00,
2013-05-10 22:21:00,84.0,42.0,-100.00,SSW,199,0.0,9.0,23,0.00,,,-99.99,0.000000,,2013-05-11 05:21:00,
2013-05-10 22:52:00,78.0,43.0,-100.00,SSW,209,0.0,0.0,29,0.00,,,0.00,0.000000,,2013-05-11 05:52:00,
2013-05-10 23:02:00,78.0,43.0,-100.00,SSW,209,0.0,0.0,29,0.00,,,0.00,0.000000,,2013-05-11 06:02:00,
2013-05-10 23:12:00,78.0,43.0,-100.00,SSW,209,0.0,0.0,29,0.00,,,0.00,0.000000,,2013-05-11 06:12:00,
2013-05-10 23:21:00,78.0,43.0,-100.00,SSW,209,0.0,0.0,29,0.00,,,0.00,0.000000,,2013-05-11 06:21:00,
2013-05-10 23:52:00,81.0,42.0,-100.00,SW,214,2.0,7.0,25,0.00,,,0.00,0.000000,,2013-05-11 06:52:00,